Marathon, FL

3:35 PM EDT on July 22, 2017 (GMT -0400)
Little Venice House Rooftop | | Change Station

Elev 8 ft 24.73 °N, 81.03 °W | Updated 4 seconds ago

Partly Cloudy
Partly Cloudy
89.2 °F
Feels Like 103 °F
N
0.0
Wind Variable Wind from SE
Gusts 4.0 mph

Today
High -- | Low -- °F
--% Chance of Precip.
Yesterday
High -- | Low -- °F
Precip. -- in
Pressure 30.06 in
Visibility 10.0 miles
Clouds Scattered Clouds 2500 ft
Mostly Cloudy 22000 ft
Heat Index 103 °F
Dew Point 78 °F
Humidity 69%
Rainfall 0.00 in
Snow Depth Not available.
6:47 AM 8:13 PM
Waning Crescent, 1% visible
SPECI KNQX 221904Z 16006KT 10SM TS SCT025CB BKN220 32/26 A3006 RMK AO2 TSB1854E1856B03 OCNL LTGICCC NE TS NE MOV SW T1 SET T03170256 $
Pressure 30.06 in
Visibility 10.0 miles
Clouds Scattered Clouds 2500 ft
Mostly Cloudy 22000 ft
Heat Index 103 °F
Dew Point 78 °F
Humidity 69%
Rainfall 0.00 in
Snow Depth Not available.
6:47 AM 8:13 PM
Waning Crescent, 1% visible
SPECI KNQX 221904Z 16006KT 10SM TS SCT025CB BKN220 32/26 A3006 RMK AO2 TSB1854E1856B03 OCNL LTGICCC NE TS NE MOV SW T1 SET T03170256 $

Get Severe Weather Alerts

Thanks for signing up!

Be on the lookout for a verification email in your inbox.

You'll start receiving the daily forecast at 6 AM.

×

10-Day Weather Forecast

Almanac

Astronomy

Jul. 22, 2017 Rise Set
Actual Time
Civil Twilight
Nautical Twilight
Astronomical Twilight
Moon
Length of Visible Light
Length of Day
Tomorrow will be .
, % of the Moon is Illuminated

Today's Extremes

State Highs State Lows

Community

WunderPhotos

Category 6

Welcome to Category 6. This is the collective home for Weather Underground's featured writeups by Dr. Jeff Masters (right), Bob Henson (left), Chris Burt, and other regular contributors.

Nearby

Air Quality

  Air Quality AQ Index Pollutant
Not available.

Snow Depth

Station Depth Elevation

Earthquake Activity

City Distance Mag. Time & Date
Minimum magnitude displayed is 2.5.

Coastal Water Temperatures

Place Temperature

Stations

Nearby Weather Stations

Station Location Temp. Windchill Dew Point Humidity Wind Precip. Elev Updated Type
                   

Watches & Warnings

There are currently no watches in effect.